M3NIC-5 Weather Reports


time (UTC)temp
C
wind
direction
speed
KPH
gust
KPH
rain 1hr
cm
rain 24hr
cm
rain mn
cm
humidity
%
barometer
mb
20260507213004 8 306 1.6 4.8 0.00 0.00 0.00 87 1018.3
20260507180004 12 116 8.0 12.9 0.00 0.00 0.00 76 1017.1
20260507170003 12 115 4.8 14.5 0.00 0.00 0.00 70 1017.2
20260507160004 14 102 4.8 19.3 0.00 0.00 0.00 61 1017.2
20260507150002 14 109 11.3 19.3 0.00 0.00 0.00 58 1017.5
20260507133003 14 148 9.7 19.3 0.00 0.00 0.00 67 1017.6
20260507130004 14 107 12.9 25.7 0.00 0.00 0.00 67 1017.8
20260507113003 13 128 8.0 19.3 0.00 0.00 0.00 70 1017.8
20260507103004 13 126 9.7 19.3 0.00 0.00 0.00 69 1018.2
20260507100004 13 152 9.7 19.3 0.00 0.00 0.00 70 1018.3
20260507090004 12 152 8.0 14.5 0.00 0.00 0.00 71 1018.0
20260507080005 12 138 4.8 11.3 0.00 0.00 0.00 72 1017.9
20260507073002 11 59 4.8 12.9 0.00 0.00 0.00 75 1017.8
20260507063005 9 345 0.0 4.8 0.00 0.00 0.00 86 1017.8
20260507060003 8 14 0.0 4.8 0.00 0.00 0.00 87 1017.5
20260507053005 8 321 1.6 4.8 0.00 0.00 0.00 88 1017.2
20260507040003 8 333 1.6 4.8 0.00 0.00 0.00 88 1016.9
20260507030003 8 326 1.6 4.8 0.00 0.00 0.00 87 1016.7
20260506233004 9 33 0.0 0.0 0.00 0.00 0.00 82 1016.3
20260506220003 10 57 0.0 3.2 0.00 0.00 0.00 78 1016.0